Flag for Canada Weather past 2 weeks in Surrey, British Columbia, Canada

Now
47 °F

Cool.


Feels Like: 44 °F
Forecast: 31 / 49 °F
Wind: 5 mph from West

Location: P. Meadows Coastal Station

Current Time: Mar 1, 2015 at 5:40:04 PM

Latest Report: Mar 1, 2015 at 5:00 PM


Visibility: N/A

Pressure: 30.04 "Hg

Humidity: 60%

Dew point: 33 °F

Location of SurreyLocation

Historic Weather in Surrey — Graph

°F

Surrey temperature yesterday

Maximum temperature yesterday: 56 °F (at 3:00 PM)
Minimum temperature yesterday: 28 °F (at 7:00 AM)
Average temperature yesterday: 42 °F

Past Weeks' High & Low Weather Summary

 TemperatureHumidityPressure
High59 °F (Feb 16, 2:00 PM)100% (Feb 15, 4:00 AM)30.50 "Hg (Feb 15, 4:00 AM)
Low28 °F (Feb 28, 7:00 AM)23% (Feb 28, 3:00 PM)29.77 "Hg (Feb 27, 7:00 AM)
Average43 °F79%30.26 "Hg
* Reported Feb 14 4:00 PM — Mar 1 4:00 PM, Surrey, Weather by CustomWeather, © 2015

Note: Actual official high and low records may vary slightly from our data, if they occured in-between our weather recording intervals... More about our weather records

Advertising

Surrey weather history for previous 24 hours

 ConditionsComfort  
Time TempWeatherWind HumidityBarometerVisibility
4:00 PM
Sun, Mar 1
49 °FCool.2 mph50%30.06 "HgN/A
3:00 PM49 °FCool.1 mph49%30.08 "HgN/A
2:00 PM48 °FCool.2 mph50%30.10 "HgN/A
1:00 PM48 °FCool.1 mph48%30.14 "HgN/A
12:00 PM46 °FCool.2 mph53%30.17 "HgN/A
11:00 AM44 °FQuite cool.1 mph67%30.19 "HgN/A
10:00 AM41 °FQuite cool.No wind70%30.22 "HgN/A
9:00 AM36 °FChilly.No wind85%30.24 "HgN/A
8:00 AM32 °FChilly.No wind95%30.24 "HgN/A
7:00 AM30 °FChilly.2 mph96%30.24 "HgN/A
6:00 AM30 °FChilly.1 mph96%30.24 "HgN/A
5:00 AM30 °FChilly.1 mph96%30.24 "HgN/A
4:00 AM29 °FChilly.1 mph94%30.24 "HgN/A
3:00 AM31 °FChilly.No wind94%30.24 "HgN/A
2:00 AM32 °FChilly.No wind92%30.25 "HgN/A
1:00 AM31 °FChilly.1 mph94%30.25 "HgN/A
12:00 AM34 °FChilly.No wind96%30.24 "HgN/A
11:00 PM
Sat, Feb 28
35 °FChilly.No wind85%30.23 "HgN/A
10:00 PM38 °FChilly.No wind73%30.23 "HgN/A
9:00 PM40 °FChilly.No wind70%30.22 "HgN/A
8:00 PM42 °FQuite cool.2 mph58%30.21 "HgN/A
7:00 PM45 °FCool.5 mph38%30.21 "HgN/A
6:00 PM46 °FCool.2 mph46%30.20 "HgN/A
5:00 PM51 °FCool.7 mph38%30.19 "HgN/A
Weather by CustomWeather, © 2015

See weather overviewHow to use our weather pages